Regional Weather Roundup
Issued by NWS

Home | Current Version | Previous Version | Text Only | Print | Product List | Glossary On
Versions: 1 2 3 4 5 6 7 8 9 10 11 12 13 14 15 16 17 18 19 20 21 22 23 24 25 26 27 28 29 30 31 32 33 34 35 36 37 38 39 40 41 42 43 44 45 46 47 48 49 50
000
ASUS43 KFSD 302302
RWRSD

WEATHER ROUNDUP FOR SOUTH DAKOTA
NATIONAL WEATHER SERVICE SIOUX FALLS SD
600 PM CDT THU OCT 30 2014

NOTE: "FAIR" INDICATES FEW OR NO CLOUDS BELOW 12,000 FEET WITH NO
SIGNIFICANT WEATHER AND/OR OBSTRUCTIONS TO VISIBILITY.


SDZ001>005-009-010-012>017-310000-
NORTHWEST AND NORTH CENTRAL SOUTH DAKOTA

CITY           SKY/WX    TMP DP  RH WIND       PRES   REMARKS
BUFFALO          N/A     38  30  73 NE10      30.35R
FAITH            N/A     39  31  72 NE10      30.42R
MOBRIDGE       CLOUDY    38  30  73 N12       30.44R
$$

SDZ012>016-024>037-041>051-057-063-072>074-310000-
SOUTHWEST AND SOUTH CENTRAL SOUTH DAKOTA

CITY           SKY/WX    TMP DP  RH WIND       PRES   REMARKS
RAPID CTY ARPT CLEAR     45  32  60 NE14      30.39R
PIERRE         CLEAR     42  31  64 N15       30.40R
CUSTER         MOCLDY    45  33  63 E8        30.36R
ELLSWORTH AFB  CLEAR     45  33  61 NE10      30.39R
PHILIP         CLEAR     46  31  55 NE12      30.41R
PINE RIDGE     MOCLDY    51  33  50 NE10      30.36R
SPEARFISH      FAIR      45  34  65 E12       30.39R
WINNER         FAIR      46  31  55 N14       30.37R
$$

SDZ004>011-016>023-039-040-310000-
NORTHEAST SOUTH DAKOTA

CITY           SKY/WX    TMP DP  RH WIND       PRES   REMARKS
ABERDEEN       CLOUDY    38  27  64 N22       30.42R
WATERTOWN      CLOUDY    36  30  79 N21G29    30.33R
SISSETON         N/A     35  28  75 N20G26    30.38R WCI  24
$$

SDZ017-020-022-023-036>040-048>070-310000-
SOUTHEAST SOUTH DAKOTA

CITY           SKY/WX    TMP DP  RH WIND       PRES   REMARKS
SIOUX FALLS    CLOUDY    43  36  76 N18G25    30.28R
HURON          CLOUDY    40  30  67 N22G30    30.38R
CHAMBERLAIN    CLEAR     45  31  58 N15       30.37R
MITCHELL       CLOUDY    44  33  65 N20G26    30.36R
YANKTON        CLOUDY    43  37  81 NW21G26   30.30R
$$

ABBREVIATIONS USED IN REMARKS
   TC - TEMPERATURE IN CELSIUS
  WCI - WIND CHILL INDEX
   HX - HEAT INDEX
  VSB - VISIBILITY




USA.gov is the U.S. government's official web portal to all federal, state and local government web resources and services.